User: anonymous   Login
Location: Unspecified
(0.0000°N, 0.0000°E)
Time: 11:16:31
(UTC+01:00)
Language:

THEMIS C - Orbit

View from above orbital plane
View from above orbital plane
View from above satellite
View from above satellite

Ground track
Ground track

The orbit data is extracted from the following two-line orbital elements,

1 30582U 07004C   10095.94791667 -.00028999  00000-0  99999-4 0  4603
2 30582 025.5707 349.3222 6489751 071.1237 089.1304 00.02043025  5772
Epoch (UTC): 05 April 2010 22:45:00
Eccentricity: 0.6489751
inclination: 25.5707°
perigee height: 192026 km
apogee height: 925647 km
right ascension of ascending node: 349.3222°
argument of perigee: 71.1237°
revolutions per day: 0.02043025
mean anomaly at epoch: 89.1304°
orbit number at epoch: 577

The dashed part of the orbit path shows where the satellite is in the earth's shadow,  

DLR